Location: *
(50.8667°S, 179.2667°W)
Time: 01:42:09
(UTC+00:00)

SAR-Lupe-2 - Pass Details

Date: 02 October 2023
Orbit: 481 x 482 km, 98.1° (Epoch: 05 September)

Event Time Altitude Azimuth Distance (km) Brightness Sun altitude
Rises 16:07:28 0° 24° (NNE) 2,555 7.3 -12.4°
Reaches altitude 10° 16:09:31 10° 26° (NNE) 1,683 6.4 -12.1°
Maximum altitude 16:13:07 64° 108° (ESE) 552 4.1 -11.5°
Drops below altitude 10° 16:16:45 10° 189° (S) 1,709 6.5 -11.0°
Sets 16:18:51 0° 192° (SSW) 2,599 7.4 -10.7°
